Location: Limerick
(52.6650°N, 8.6230°W)
Time: 19:45:36
(UTC+01:00)

ISS - Pass Details

Date: 22 July 2017
Orbit: 400 x 408 km, 51.6° (Epoch: 21 July)

Event Time Altitude Azimuth Distance (km) Brightness Sun altitude
Exits shadow 03:15:52 - 275° (W) 2,309 -0.2 -14.2°
Reaches altitude 10° 03:17:56 10° 272° (W) 1,456 -1.2 -14.1°
Maximum altitude 03:21:11 66° 190° (S) 443 -3.9 -13.9°
Drops below altitude 10° 03:24:25 10° 108° (ESE) 1,456 -0.9 -13.7°
Sets 03:26:30 0° 105° (ESE) 2,316 0.1 -13.6°
